TimeEDT,TemperatureF,Dew PointF,Humidity,Sea Level PressureIn,VisibilityMPH,Wind Direction,Wind SpeedMPH,Gust SpeedMPH,PrecipitationIn,Events,Conditions,WindDirDegrees,DateUTC
12:15 AM,71.6,66.2,83,30.20,10.0,WSW,4.6,-,N/A,,Clear,250,2013-08-21 04:15:00
12:35 AM,71.6,66.2,83,30.20,10.0,WSW,3.5,-,N/A,,Clear,240,2013-08-21 04:35:00
12:55 AM,68.0,66.2,94,30.20,9.0,West,3.5,-,N/A,,Clear,270,2013-08-21 04:55:00
1:15 AM,69.8,66.2,88,30.19,10.0,West,3.5,-,N/A,,Clear,260,2013-08-21 05:15:00
1:35 AM,69.8,66.2,88,30.19,8.0,West,3.5,-,N/A,,Clear,260,2013-08-21 05:35:00
1:55 AM,69.8,66.2,88,30.19,10.0,WSW,3.5,-,N/A,,Clear,250,2013-08-21 05:55:00
2:15 AM,69.8,66.2,88,30.19,10.0,WSW,3.5,-,N/A,,Clear,240,2013-08-21 06:15:00
2:35 AM,69.8,66.2,88,30.19,9.0,WSW,4.6,-,N/A,,Clear,250,2013-08-21 06:35:00
2:55 AM,66.2,66.2,100,30.20,5.0,West,5.8,-,N/A,,Clear,270,2013-08-21 06:55:00
3:15 AM,68.0,66.2,94,30.19,5.0,West,5.8,-,N/A,,Clear,270,2013-08-21 07:15:00
3:35 AM,68.0,66.2,94,30.20,5.0,West,4.6,-,N/A,,Clear,260,2013-08-21 07:35:00
3:55 AM,66.2,64.4,94,30.20,5.0,West,4.6,-,N/A,,Clear,270,2013-08-21 07:55:00
4:15 AM,66.2,66.2,100,30.20,5.0,West,5.8,-,N/A,,Clear,270,2013-08-21 08:15:00
4:35 AM,64.4,64.4,100,30.20,3.0,West,5.8,-,N/A,,Clear,280,2013-08-21 08:35:00
4:55 AM,66.2,64.4,94,30.20,5.0,West,4.6,-,N/A,,Clear,280,2013-08-21 08:55:00
5:15 AM,66.2,64.4,94,30.21,4.0,WNW,4.6,-,N/A,,Clear,290,2013-08-21 09:15:00
5:35 AM,66.2,64.4,94,30.21,10.0,West,3.5,-,N/A,,Clear,280,2013-08-21 09:35:00
5:55 AM,66.2,62.6,88,30.21,10.0,West,3.5,-,N/A,,Clear,280,2013-08-21 09:55:00
6:15 AM,64.4,62.6,94,30.21,10.0,West,3.5,-,N/A,,Clear,280,2013-08-21 10:15:00
6:35 AM,64.4,62.6,94,30.22,10.0,WNW,3.5,-,N/A,,Clear,290,2013-08-21 10:35:00
6:55 AM,64.4,62.6,94,30.22,8.0,Calm,Calm,-,N/A,,Clear,0,2013-08-21 10:55:00
7:15 AM,66.2,62.6,88,30.22,10.0,Calm,Calm,-,N/A,,Clear,0,2013-08-21 11:15:00
7:35 AM,66.2,64.4,94,30.23,8.0,WNW,4.6,-,N/A,,Clear,290,2013-08-21 11:35:00
7:55 AM,69.8,64.4,83,30.23,10.0,West,4.6,-,N/A,,Clear,280,2013-08-21 11:55:00
8:15 AM,71.6,64.4,78,30.23,10.0,WNW,3.5,-,N/A,,Clear,290,2013-08-21 12:15:00
8:35 AM,73.4,64.4,73,30.23,10.0,WNW,3.5,-,N/A,,Clear,290,2013-08-21 12:35:00
8:55 AM,75.2,66.2,73,30.24,10.0,West,3.5,-,N/A,,Clear,280,2013-08-21 12:55:00
9:15 AM,78.8,66.2,65,30.23,10.0,North,3.5,-,N/A,,Clear,360,2013-08-21 13:15:00
9:35 AM,78.8,64.4,61,30.23,10.0,Calm,Calm,-,N/A,,Clear,0,2013-08-21 13:35:00
9:55 AM,80.6,66.2,61,30.23,10.0,Calm,Calm,-,N/A,,Clear,0,2013-08-21 13:55:00
10:15 AM,82.4,60.8,48,30.23,10.0,West,3.5,-,N/A,,Clear,270,2013-08-21 14:15:00
10:35 AM,82.4,60.8,48,30.23,10.0,Calm,Calm,-,N/A,,Clear,0,2013-08-21 14:35:00
10:55 AM,82.4,60.8,48,30.23,10.0,West,3.5,-,N/A,,Clear,260,2013-08-21 14:55:00
11:15 AM,82.4,60.8,48,30.23,10.0,WNW,4.6,-,N/A,,Clear,290,2013-08-21 15:15:00
11:35 AM,82.4,62.6,51,30.23,10.0,WSW,3.5,-,N/A,,Clear,250,2013-08-21 15:35:00
11:55 AM,82.4,64.4,54,30.23,10.0,SSW,3.5,-,N/A,,Clear,210,2013-08-21 15:55:00
12:15 PM,82.4,64.4,54,30.23,10.0,SSW,3.5,-,N/A,,Scattered Clouds,210,2013-08-21 16:15:00
12:35 PM,84.2,64.4,51,30.22,10.0,SW,3.5,-,N/A,,Scattered Clouds,220,2013-08-21 16:35:00
12:55 PM,82.4,66.2,58,30.22,10.0,WSW,3.5,-,N/A,,Partly Cloudy,240,2013-08-21 16:55:00
1:15 PM,84.2,66.2,55,30.21,10.0,SSW,4.6,-,N/A,,Clear,200,2013-08-21 17:15:00
1:35 PM,84.2,66.2,55,30.20,10.0,SW,3.5,-,N/A,,Clear,220,2013-08-21 17:35:00
1:55 PM,84.2,68.0,58,30.20,10.0,WSW,4.6,-,N/A,,Clear,250,2013-08-21 17:55:00
2:15 PM,82.4,68.0,62,30.20,10.0,South,4.6,-,N/A,,Partly Cloudy,190,2013-08-21 18:15:00
2:35 PM,82.4,68.0,62,30.19,10.0,WSW,3.5,-,N/A,,Scattered Clouds,250,2013-08-21 18:35:00
2:55 PM,84.2,69.8,62,30.18,10.0,SW,5.8,-,N/A,,Scattered Clouds,220,2013-08-21 18:55:00
3:15 PM,84.2,69.8,62,30.17,10.0,SSW,4.6,-,N/A,,Scattered Clouds,210,2013-08-21 19:15:00
3:35 PM,84.2,71.6,66,30.16,10.0,South,4.6,-,N/A,,Partly Cloudy,180,2013-08-21 19:35:00
3:55 PM,82.4,71.6,70,30.16,10.0,SSE,3.5,-,N/A,,Scattered Clouds,150,2013-08-21 19:55:00
4:15 PM,82.4,71.6,70,30.15,10.0,SSW,4.6,-,N/A,,Scattered Clouds,210,2013-08-21 20:15:00
4:35 PM,82.4,71.6,70,30.14,10.0,SSW,3.5,-,N/A,,Scattered Clouds,200,2013-08-21 20:35:00
4:55 PM,80.6,69.8,70,30.14,10.0,Calm,Calm,-,N/A,,Mostly Cloudy,0,2013-08-21 20:55:00
5:15 PM,80.6,69.8,70,30.14,10.0,SW,3.5,-,N/A,,Mostly Cloudy,230,2013-08-21 21:15:00
5:35 PM,78.8,64.4,61,30.14,10.0,West,8.1,-,N/A,Rain,Rain,260,2013-08-21 21:35:00
5:55 PM,75.2,66.2,73,30.13,10.0,SE,4.6,-,0.03,,Mostly Cloudy,140,2013-08-21 21:55:00
6:15 PM,73.4,68.0,83,30.13,10.0,SSW,5.8,-,N/A,,Partly Cloudy,210,2013-08-21 22:15:00
6:35 PM,73.4,68.0,83,30.13,10.0,South,3.5,-,N/A,,Clear,190,2013-08-21 22:35:00
6:55 PM,75.2,68.0,78,30.13,10.0,Calm,Calm,-,N/A,,Clear,0,2013-08-21 22:55:00
7:15 PM,73.4,69.8,88,30.13,10.0,Calm,Calm,-,N/A,,Clear,0,2013-08-21 23:15:00
7:35 PM,73.4,69.8,88,30.13,10.0,Calm,Calm,-,N/A,,Clear,0,2013-08-21 23:35:00
7:55 PM,73.4,68.0,83,30.12,10.0,Calm,Calm,-,N/A,,Clear,0,2013-08-21 23:55:00
8:15 PM,75.2,69.8,83,30.13,10.0,Calm,Calm,-,N/A,,Clear,0,2013-08-22 00:15:00
8:35 PM,73.4,69.8,88,30.13,10.0,Calm,Calm,-,N/A,,Clear,0,2013-08-22 00:35:00
8:55 PM,73.4,69.8,88,30.14,10.0,Calm,Calm,-,N/A,,Clear,0,2013-08-22 00:55:00
9:15 PM,73.4,69.8,88,30.14,10.0,Calm,Calm,-,N/A,,Clear,0,2013-08-22 01:15:00
9:35 PM,73.4,69.8,88,30.14,10.0,Calm,Calm,-,N/A,,Partly Cloudy,0,2013-08-22 01:35:00
9:55 PM,73.4,69.8,88,30.13,10.0,Calm,Calm,-,N/A,,Partly Cloudy,0,2013-08-22 01:55:00
10:15 PM,75.2,69.8,83,30.12,10.0,Calm,Calm,-,N/A,,Clear,0,2013-08-22 02:15:00
10:35 PM,73.4,69.8,88,30.13,10.0,Calm,Calm,-,N/A,,Clear,0,2013-08-22 02:35:00
10:55 PM,73.4,69.8,88,30.13,10.0,Calm,Calm,-,N/A,,Clear,0,2013-08-22 02:55:00
11:15 PM,71.6,69.8,94,30.13,10.0,Calm,Calm,-,N/A,,Clear,0,2013-08-22 03:15:00
11:35 PM,71.6,69.8,94,30.12,10.0,Calm,Calm,-,N/A,,Clear,0,2013-08-22 03:35:00
11:55 PM,71.6,69.8,94,30.11,10.0,Calm,Calm,-,N/A,,Clear,0,2013-08-22 03:55:00